Temp
-7 -7 -7 -8 -8 -8 -8 -8 -8 -8 -8 -8 -8 -8 -8 -8 -8 -8 -8 -8 -8 -8 -8 -8 -8 -8 -8 -8 -8 -8 -8 -8 -8 -9 -9 -9 -9 -9 -9 -9 -9 -9
-7 -7 -7 -7 -7 -8 -8 -8 -8 -8 -8 -8 -8 -8 -8 -8 -8 -8 -8 -8 -8 -8 -8 -8 -8 -8 -8 -8 -8 -8 -8 -8 -9 -9 -9 -9 -9 -9 -9 -9 -9 -9
-7 -7 -7 -7 -7 -7 -8 -8 -8 -8 -8 -8 -8 -8 -8 -8 -8 -8 -8 -8 -8 -8 -8 -8 -8 -8 -8 -8 -8 -8 -9 -9 -9 -9 -9 -9 -9 -9 -9 -9 -9 -9
-7 -7 -7 -7 -7 -7 -8 -8 -8 -8 -8 -8 -8 -8 -8 -8 -8 -8 -8 -8 -8 -8 -8 -8 -8 -8 -8 -9 -9 -9 -9 -9 -9 -9 -9 -9 -9 -9 -9 -9 -9 -9
-7 -7 -7 -7 -7 -7 -7 -8 -8 -8 -8 -8 -8 -8 -8 -8 -8 -8 -8 -8 -8 -8 -8 -8 -8 -8 -9 -9 -9 -9 -9 -9 -9 -9 -9 -9 -9 -9 -9 -9 -10 -10
-7 -7 -7 -7 -7 -7 -7 -8 -8 -8 -8 -8 -8 -8 -8 -8 -8 -8 -8 -8 -8 -8 -8 -8 -8 -9 -9 -9 -9 -9 -9 -9 -9 -9 -9 -9 -9 -9 -9 -10 -10 -10
-7 -7 -7 -7 -8 -8 -8 -8 -8 -8 -8 -8 -8 -8 -8 -8 -8 -8 -8 -8 -8 -8 -9 -9 -9 -9 -9 -9 -9 -9 -9 -9 -9 -9 -9 -9 -9 -9 -10 -10 -10 -10
-7 -7 -8 -8 -8 -8 -8 -8 -8 -8 -8 -8 -8 -8 -8 -8 -8 -8 -8 -8 -8 -9 -9 -9 -9 -9 -9 -9 -9 -9 -9 -9 -9 -9 -9 -10 -10 -10 -10 -9 -10 -10
-8 -8 -8 -8 -8 -8 -8 -9 -9 -8 -8 -8 -8 -8 -8 -8 -8 -8 -8 -8 -9 -9 -9 -9 -9 -9 -9 -9 -9 -9 -9 -9 -9 -10 -10 -10 -10 -10 -10 -10 -10 -10
-8 -9 -9 -9 -8 -8 -9 -9 -9 -9 -8 -8 -8 -8 -8 -8 -8 -8 -8 -9 -9 -9 -9 -9 -9 -9 -9 -9 -9 -9 -9 -10 -10 -10 -10 -10 -10 -10 -10 -10 -10 -10
-8 -8 -8 -9 -9 -9 -9 -9 -9 -9 -9 -9 -8 -8 -8 -8 -8 -8 -9 -9 -9 -9 -9 -9 -9 -9 -9 -9 -9 -9 -9 -10 -10 -10 -10 -10 -10 -10 -10 -10 -10 -11
-8 -8 -8 -9 -9 -9 -10 -10 -9 -9 -9 -9 -8 -9 -9 -9 -9 -9 -9 -9 -9 -9 -9 -9 -9 -9 -9 -9 -9 -9 -10 -10 -10 -10 -10 -10 -10 -10 -10 -11 -11 -11
-8 -8 -9 -9 -10 -9 -9 -10 -10 -10 -9 -9 -9 -9 -9 -9 -9 -9 -9 -9 -9 -9 -9 -9 -9 -9 -9 -9 -9 -9 -10 -10 -10 -10 -10 -10 -11 -11 -11 -11 -11 -11
-8 -9 -9 -10 -10 -10 -10 -10 -10 -10 -9 -9 -9 -9 -9 -9 -9 -9 -9 -9 -10 -10 -9 -9 -9 -9 -9 -9 -9 -10 -10 -10 -11 -11 -11 -11 -11 -11 -11 -11 -12 -12
-8 -9 -9 -9 -10 -10 -10 -10 -10 -10 -9 -9 -9 -9 -9 -9 -9 -9 -9 -9 -10 -10 -10 -9 -9 -9 -9 -10 -10 -10 -10 -11 -11 -11 -11 -11 -11 -12 -12 -12 -12 -12
-9 -9 -9 -9 -10 -10 -10 -10 -10 -10 -9 -9 -9 -9 -9 -9 -10 -10 -10 -10 -10 -10 -10 -10 -10 -10 -10 -10 -10 -10 -11 -11 -11 -11 -11 -11 -12 -12 -12 -12 -12 -12
-8 -9 -9 -9 -9 -10 -10 -10 -10 -10 -10 -10 -10 -10 -10 -10 -10 -10 -10 -10 -10 -10 -10 -10 -10 -10 -10 -10 -10 -11 -11 -11 -11 -12 -12 -12 -12 -12 -12 -12 -12 -12
-8 -9 -9 -9 -9 -10 -10 -10 -10 -10 -10 -10 -10 -10 -10 -10 -10 -10 -10 -10 -10 -10 -10 -10 -10 -10 -10 -11 -11 -11 -11 -11 -12 -12 -12 -12 -12 -12 -12 -12 -12 -12
-8 -9 -9 -9 -9 -9 -9 -10 -10 -10 -10 -10 -10 -10 -10 -10 -10 -10 -10 -10 -10 -10 -10 -10 -10 -10 -11 -11 -11 -11 -11 -12 -12 -12 -12 -12 -12 -12 -12 -12 -12 -12
-8 -9 -9 -9 -9 -9 -9 -10 -10 -10 -10 -10 -10 -10 -11 -11 -11 -11 -11 -10 -10 -10 -10 -11 -11 -11 -11 -12 -12 -11 -12 -12 -12 -12 -12 -12 -12 -12 -12 -12 -12 -12
-8 -8 -9 -8 -8 -9 -9 -10 -10 -10 -10 -10 -10 -11 -11 -11 -11 -11 -11 -11 -10 -10 -11 -11 -11 -12 -12 -12 -12 -12 -12 -12 -12 -12 -12 -12 -12 -12 -12 -12 -12 -13
-8 -8 -8 -8 -9 -9 -9 -10 -10 -10 -10 -10 -10 -11 -11 -11 -11 -11 -11 -11 -11 -11 -11 -11 -11 -12 -12 -12 -12 -12 -12 -12 -12 -12 -12 -12 -12 -12 -12 -12 -13 -13
-8 -8 -8 -9 -9 -9 -9 -10 -10 -10 -10 -10 -11 -11 -11 -11 -12 -11 -11 -11 -11 -11 -11 -11 -11 -11 -12 -12 -12 -12 -12 -12 -12 -12 -12 -12 -13 -13 -13 -13 -13 -13
-8 -8 -8 -9 -9 -9 -10 -10 -10 -10 -10 -10 -11 -11 -11 -12 -12 -11 -11 -11 -12 -12 -12 -11 -11 -11 -12 -12 -12 -12 -12 -12 -13 -13 -13 -13 -13 -13 -13 -13 -13 -13
-8 -7 -8 -9 -9 -10 -10 -10 -11 -11 -11 -11 -11 -11 -12 -12 -12 -12 -12 -12 -12 -12 -12 -11 -11 -11 -12 -12 -12 -12 -12 -13 -13 -13 -13 -13 -13 -13 -13 -13 -14 -14
-8 -7 -8 -9 -10 -10 -10 -10 -11 -11 -11 -11 -11 -12 -12 -12 -12 -12 -12 -12 -12 -12 -11 -12 -12 -12 -12 -12 -12 -13 -13 -13 -13 -13 -13 -13 -13 -13 -13 -14 -14 -14
Height
5895 5894 5893 5891 5890 5888 5886 5885 5884 5883 5882 5881 5881 5880 5879 5878 5878 5877 5876 5875 5873 5872 5870 5869 5868 5867 5866 5865 5863 5862 5860 5859 5857 5855 5853 5851 5849 5848 5847 5845 5844 5842
5892 5891 5890 5889 5888 5886 5885 5884 5882 5882 5881 5880 5879 5878 5877 5876 5876 5875 5874 5872 5871 5869 5868 5866 5865 5864 5863 5861 5860 5859 5857 5855 5853 5851 5849 5847 5846 5844 5843 5841 5840 5838
5889 5888 5887 5886 5885 5884 5883 5882 5881 5880 5879 5878 5877 5876 5875 5874 5873 5872 5871 5870 5868 5866 5865 5863 5862 5861 5860 5858 5857 5855 5853 5852 5850 5847 5846 5844 5842 5840 5838 5837 5835 5834
5886 5885 5884 5883 5882 5882 5881 5880 5879 5877 5876 5875 5874 5873 5872 5871 5870 5870 5868 5867 5865 5864 5862 5860 5859 5858 5857 5855 5853 5851 5850 5848 5846 5844 5842 5840 5838 5836 5834 5833 5831 5829
5883 5882 5881 5880 5879 5878 5878 5877 5876 5875 5874 5873 5871 5870 5869 5868 5868 5867 5865 5864 5863 5861 5859 5858 5856 5855 5853 5851 5849 5847 5846 5844 5842 5840 5838 5836 5834 5832 5830 5828 5826 5824
5879 5879 5878 5877 5876 5875 5874 5873 5873 5872 5871 5870 5869 5868 5867 5866 5865 5864 5863 5861 5860 5858 5856 5855 5853 5851 5849 5847 5845 5843 5842 5840 5838 5836 5834 5832 5830 5828 5826 5823 5821 5819
5875 5874 5874 5873 5873 5872 5871 5870 5869 5869 5868 5867 5866 5865 5864 5863 5862 5861 5860 5858 5857 5855 5853 5852 5850 5848 5846 5843 5841 5839 5837 5835 5834 5832 5830 5828 5825 5823 5821 5819 5816 5813
5872 5870 5869 5869 5869 5869 5868 5867 5866 5865 5864 5863 5862 5862 5861 5860 5859 5858 5856 5855 5853 5852 5850 5849 5847 5844 5842 5839 5836 5834 5833 5832 5830 5828 5826 5823 5821 5818 5816 5814 5811 5809
5868 5866 5865 5865 5865 5866 5865 5864 5863 5862 5861 5860 5860 5859 5858 5857 5855 5854 5853 5851 5850 5849 5847 5845 5843 5841 5838 5835 5833 5831 5829 5828 5826 5824 5821 5819 5816 5814 5812 5809 5807 5804
5864 5860 5859 5861 5863 5864 5863 5862 5861 5859 5858 5857 5857 5856 5855 5853 5852 5851 5849 5848 5847 5846 5845 5842 5840 5837 5834 5831 5829 5827 5826 5824 5822 5820 5817 5814 5812 5809 5807 5805 5802 5800
5858 5855 5856 5860 5862 5862 5861 5859 5857 5855 5855 5854 5854 5853 5852 5850 5849 5847 5846 5845 5844 5843 5841 5839 5836 5833 5830 5828 5826 5824 5823 5821 5819 5816 5813 5810 5807 5805 5802 5800 5797 5794
5852 5853 5857 5860 5859 5857 5856 5854 5852 5851 5851 5851 5850 5849 5848 5847 5845 5844 5843 5842 5841 5840 5838 5835 5832 5829 5826 5824 5822 5820 5819 5817 5814 5812 5808 5805 5802 5800 5797 5794 5792 5789
5847 5853 5859 5857 5853 5851 5850 5849 5848 5847 5848 5847 5846 5845 5844 5843 5841 5840 5839 5838 5837 5836 5833 5831 5828 5825 5823 5821 5819 5817 5815 5813 5810 5807 5804 5801 5797 5795 5792 5789 5786 5783
5845 5855 5856 5850 5847 5846 5846 5845 5845 5844 5845 5844 5842 5840 5839 5838 5838 5836 5835 5834 5833 5832 5829 5827 5824 5821 5819 5817 5815 5813 5811 5808 5806 5803 5799 5796 5792 5789 5787 5784 5781 5777
5849 5854 5849 5843 5841 5841 5841 5842 5842 5842 5842 5840 5837 5835 5834 5834 5833 5832 5831 5830 5829 5827 5825 5822 5820 5817 5815 5813 5811 5809 5807 5804 5801 5797 5794 5790 5787 5784 5781 5778 5775 5772
5849 5847 5841 5839 5838 5837 5837 5839 5839 5839 5838 5835 5833 5831 5830 5829 5828 5828 5827 5826 5825 5823 5820 5818 5815 5813 5811 5809 5807 5805 5802 5799 5795 5792 5789 5786 5782 5779 5777 5773 5770 5767
5840 5837 5836 5837 5835 5833 5834 5836 5836 5836 5834 5831 5829 5827 5825 5824 5824 5823 5823 5821 5820 5817 5815 5813 5811 5809 5807 5805 5803 5800 5797 5794 5791 5787 5784 5781 5778 5775 5772 5769 5765 5762
5832 5832 5833 5833 5830 5829 5830 5831 5832 5832 5830 5827 5824 5823 5821 5820 5819 5819 5818 5816 5814 5812 5810 5808 5806 5805 5803 5801 5799 5796 5793 5790 5787 5783 5780 5777 5773 5770 5767 5764 5760 5757
5831 5832 5830 5828 5827 5826 5825 5826 5827 5826 5825 5822 5820 5819 5817 5816 5815 5814 5812 5811 5809 5807 5805 5803 5801 5800 5799 5796 5794 5791 5789 5786 5782 5778 5775 5772 5768 5765 5761 5758 5755 5752
5828 5827 5823 5821 5821 5821 5820 5820 5821 5820 5819 5818 5816 5814 5813 5811 5810 5809 5807 5806 5805 5803 5801 5799 5797 5795 5794 5792 5789 5786 5783 5780 5776 5772 5769 5766 5763 5759 5756 5752 5749 5746
5822 5821 5818 5816 5816 5815 5816 5815 5815 5815 5815 5813 5811 5809 5808 5806 5805 5804 5803 5802 5800 5799 5797 5795 5793 5791 5789 5787 5784 5780 5777 5773 5769 5766 5763 5760 5756 5753 5749 5746 5743 5740
5817 5817 5814 5811 5811 5811 5811 5811 5810 5810 5809 5807 5805 5804 5802 5801 5801 5800 5799 5797 5796 5794 5792 5790 5788 5785 5784 5781 5778 5774 5771 5767 5764 5760 5757 5753 5750 5747 5743 5740 5737 5735
5814 5812 5808 5805 5806 5807 5807 5806 5805 5805 5804 5802 5800 5798 5797 5797 5796 5796 5795 5793 5791 5790 5788 5785 5782 5780 5778 5775 5772 5769 5765 5762 5758 5755 5751 5748 5744 5741 5738 5734 5731 5729
5810 5807 5802 5800 5802 5803 5802 5801 5800 5799 5798 5797 5795 5793 5793 5792 5792 5791 5790 5789 5787 5785 5783 5780 5777 5774 5772 5769 5766 5763 5760 5756 5753 5749 5746 5742 5739 5735 5732 5729 5726 5724
5805 5803 5800 5798 5799 5798 5796 5795 5794 5793 5793 5791 5789 5789 5788 5787 5787 5787 5786 5784 5783 5781 5778 5775 5772 5769 5766 5763 5760 5757 5754 5751 5747 5744 5740 5737 5733 5730 5726 5724 5721 5719
5801 5800 5797 5794 5792 5791 5789 5788 5788 5788 5787 5786 5784 5783 5783 5783 5783 5782 5781 5779 5778 5776 5773 5769 5766 5763 5761 5758 5755 5752 5749 5745 5742 5738 5735 5731 5728 5724 5721 5719 5716 5714
Wind_Speed
20 22 23 23 22 22 23 24 25 26 27 28 28 28 28 28 27 27 26 26 25 25 23 22 23 25 26 27 28 30 31 33 34 35 36 36 36 36 36 36 36 36
21 23 24 24 23 22 22 23 24 25 27 28 28 28 28 27 26 26 26 25 25 25 24 24 25 27 28 29 30 31 33 34 35 36 37 37 37 37 38 38 38 38
24 26 27 26 24 23 22 22 23 25 26 28 28 28 27 27 26 26 26 25 25 26 26 26 27 28 30 30 31 32 34 35 36 36 37 38 38 38 39 39 39 40
26 27 29 28 26 25 23 23 23 25 27 27 28 28 28 27 27 27 26 26 26 27 27 28 29 30 31 31 32 33 34 35 36 37 38 39 39 39 39 39 40 40
28 29 30 29 27 25 25 25 26 27 28 28 27 28 28 28 28 27 26 26 27 28 28 29 30 31 31 32 33 34 35 35 37 38 39 40 40 40 40 40 40 41
32 31 31 30 28 26 24 25 27 28 28 28 27 27 27 28 28 27 27 27 28 28 29 30 31 31 32 33 34 34 35 36 38 40 41 41 41 40 40 41 42 42
35 34 32 31 30 27 24 24 25 27 27 27 26 26 26 28 28 27 27 28 29 29 30 31 31 32 33 34 35 36 37 39 40 41 41 41 40 40 41 42 44 44
36 37 35 32 31 28 24 24 24 25 26 26 25 25 26 27 27 26 27 28 29 30 31 31 32 33 34 35 36 37 39 41 42 42 41 41 41 42 43 45 46 46
36 38 36 32 30 28 24 23 24 25 26 26 26 25 25 26 26 26 26 28 30 31 31 32 33 35 36 36 37 38 40 42 43 43 43 43 43 43 45 46 46 46
37 40 38 33 31 29 25 23 25 26 27 27 27 26 26 26 25 25 26 29 31 31 32 34 35 36 37 37 38 39 41 42 43 43 44 44 45 45 46 46 46 47
40 43 41 34 30 29 27 27 28 27 28 28 28 27 26 26 25 25 27 29 30 31 34 36 37 37 37 38 38 39 40 42 43 44 45 46 46 47 47 47 48 49
44 43 37 33 31 31 32 31 28 26 28 29 29 28 27 26 25 26 28 30 31 33 35 37 38 38 38 38 38 39 41 43 44 45 46 47 47 48 48 49 50 49
48 41 32 32 34 35 35 32 26 25 27 30 30 30 29 27 27 28 30 31 32 34 36 38 38 37 37 37 38 40 42 45 46 46 46 47 48 48 49 50 49 47
48 36 31 35 37 36 35 32 27 26 28 29 30 31 31 29 29 30 32 33 34 35 36 37 37 36 37 37 39 41 44 46 46 46 46 47 49 49 50 49 47 45
45 34 34 39 37 33 32 30 28 28 28 29 30 31 31 30 31 32 34 35 36 36 36 36 36 36 37 38 40 43 45 47 47 46 47 48 50 50 49 48 46 45
43 41 40 39 34 31 29 28 28 28 27 28 29 30 31 31 31 33 35 36 38 37 36 36 36 37 38 39 42 45 47 48 48 48 49 49 50 50 48 47 45 45
38 43 42 39 36 32 28 27 28 28 28 29 29 31 31 31 32 33 35 37 39 39 38 37 38 40 40 41 44 46 48 49 49 49 49 49 49 48 47 46 44 44
39 40 40 39 36 31 28 29 30 31 31 30 31 32 32 32 32 33 34 37 39 39 38 39 41 43 42 43 45 47 48 48 48 48 48 48 48 47 47 45 44 44
38 37 38 37 34 32 32 31 31 33 32 31 33 33 32 33 33 32 34 37 38 38 38 39 42 44 43 44 46 48 49 48 48 47 47 47 47 47 47 46 45 45
36 34 37 38 39 40 37 31 29 31 32 33 35 35 33 33 33 33 35 37 38 37 38 40 43 44 44 45 48 50 50 48 48 47 47 47 47 47 47 47 47 46
32 32 35 37 40 41 38 32 31 33 33 34 36 35 34 34 33 34 36 38 38 38 39 41 43 44 45 46 49 50 49 48 48 47 48 48 47 47 47 47 47 46
30 31 35 37 39 39 36 32 33 35 34 33 34 34 34 34 34 35 37 39 38 38 40 42 44 45 45 46 48 48 47 47 47 48 48 48 48 47 47 47 46 44
30 33 37 38 38 39 37 35 37 37 34 33 34 33 34 34 35 36 38 39 38 38 41 43 45 46 46 46 47 47 47 47 47 48 48 48 47 47 46 46 45 43
35 38 39 38 36 37 38 41 42 38 33 34 34 33 33 35 36 38 39 39 38 40 42 44 46 46 45 46 47 48 47 48 48 48 48 47 47 46 45 44 43 43
38 39 39 38 38 38 40 44 45 38 33 35 34 33 34 36 36 37 38 39 40 41 44 46 47 46 45 47 48 48 48 48 48 48 48 47 46 45 44 43 43 43
41 43 43 41 39 37 39 42 42 37 35 35 34 33 34 35 35 36 38 40 41 41 44 47 46 46 47 47 48 48 48 48 48 48 48 47 46 44 42 42 42 42
Wind_Direction
288 286 287 288 289 293 295 296 296 296 296 297 298 298 300 301 302 304 306 306 306 306 307 307 307 306 305 304 305 307 310 313 315 315 314 314 314 313 313 313 313 313
295 294 293 290 289 291 292 291 291 292 293 293 294 296 298 300 300 302 304 305 305 306 307 308 308 307 306 305 306 308 311 313 314 315 315 315 315 314 313 313 313 313
297 299 299 297 294 292 291 290 288 289 290 291 293 296 297 298 298 299 301 305 307 307 308 308 308 308 306 305 306 308 310 312 313 314 314 314 314 314 313 313 313 313
299 301 302 302 299 295 291 290 290 290 290 291 293 294 296 296 295 296 300 304 307 308 309 310 309 307 306 305 305 307 309 312 313 313 313 313 313 313 314 314 314 314
302 302 303 303 301 297 293 291 292 293 292 292 292 293 295 297 295 294 298 304 307 309 310 309 308 307 306 306 306 308 310 312 313 313 312 312 312 313 314 315 316 315
304 302 302 301 299 297 293 290 290 293 294 293 292 292 295 296 295 294 298 304 308 310 310 309 308 308 308 308 309 311 313 314 314 313 312 312 312 313 315 316 317 317
302 299 298 297 295 294 292 288 286 289 292 293 291 291 292 293 294 296 300 305 309 310 310 310 309 310 311 312 313 315 316 315 314 312 312 313 314 316 317 318 318 318
296 294 292 291 290 290 289 287 285 287 290 292 290 289 290 293 296 299 302 306 309 310 311 310 311 312 313 315 316 317 316 314 312 311 313 315 316 318 319 318 317 317
289 287 285 283 284 285 284 283 284 288 292 292 290 289 292 298 300 302 305 308 310 311 311 311 311 313 315 315 316 316 315 314 312 312 313 315 316 317 317 316 315 315
285 282 279 279 283 282 281 283 285 290 296 295 292 290 294 301 303 305 309 310 311 311 311 311 312 314 315 315 315 315 314 313 313 313 313 314 315 316 315 314 314 314
280 277 277 282 285 279 280 287 288 292 297 296 294 291 293 299 305 309 311 310 310 311 311 313 314 316 315 314 314 314 313 314 315 315 314 314 315 315 314 314 314 314
277 278 280 283 280 274 279 285 287 293 297 296 295 292 291 298 306 311 312 310 309 311 313 314 314 314 314 313 314 313 313 315 316 316 315 315 315 315 314 314 314 315
276 279 280 277 272 273 279 281 284 293 295 295 298 296 292 295 303 311 313 310 309 311 312 313 313 311 311 312 312 313 314 315 316 316 316 315 315 314 315 315 315 315
275 275 272 269 267 270 275 276 281 292 296 298 304 303 297 293 297 307 312 311 309 308 309 310 311 310 310 310 311 312 314 316 316 315 315 315 315 315 315 316 316 316
277 274 268 265 266 269 272 274 285 295 299 304 308 308 303 295 293 300 307 309 307 305 306 309 311 311 309 309 310 312 315 316 316 316 316 316 316 316 316 317 317 316
280 274 267 263 268 274 275 280 292 297 300 307 309 308 304 297 292 295 302 306 306 304 303 306 312 314 311 310 311 312 315 317 316 316 316 316 316 316 316 316 316 315
281 271 268 268 271 275 278 287 295 296 298 305 306 305 304 299 295 296 300 305 307 305 301 301 309 314 313 311 313 314 315 316 316 315 315 315 315 315 315 315 314 313
282 273 275 274 270 271 278 286 290 290 294 299 301 302 302 299 297 297 300 304 306 305 301 299 304 311 312 312 314 315 314 313 313 314 314 314 315 315 315 314 312 311
286 284 283 276 269 275 282 284 285 287 290 292 295 297 298 296 296 296 298 302 303 304 302 301 305 309 311 312 314 314 311 311 312 314 314 315 315 315 314 313 311 310
290 286 281 274 271 278 284 282 282 289 292 290 290 293 294 295 295 295 296 299 301 303 305 306 307 308 310 310 311 311 311 312 314 316 316 317 316 316 315 313 311 310
288 281 280 275 272 277 283 280 279 290 297 292 289 291 293 294 294 294 295 297 300 302 306 308 307 306 307 308 308 310 311 314 316 317 318 318 317 316 314 312 311 310
291 288 284 276 272 277 281 277 282 293 297 294 291 291 291 292 291 292 295 297 299 302 306 307 306 306 307 307 308 310 313 316 317 319 319 319 316 314 312 310 310 309
298 299 289 275 274 278 276 277 288 295 296 296 294 289 288 289 287 289 293 296 297 301 306 309 308 308 308 308 311 314 315 317 318 319 319 318 315 312 310 309 309 310
299 302 290 277 281 285 277 278 287 289 291 296 293 286 285 286 284 288 293 294 294 300 306 309 308 307 308 311 314 315 316 317 319 319 319 316 313 312 310 310 311 312
303 304 293 284 288 289 281 281 283 281 287 296 292 285 285 284 285 290 293 293 294 300 306 309 308 308 310 313 315 315 316 318 319 319 318 315 313 312 312 312 313 313
306 306 299 292 289 284 281 283 280 275 284 295 291 284 285 286 288 292 294 294 296 302 307 308 309 310 312 313 313 315 317 319 319 318 316 313 313 313 314 314 314 314